Weather observations for the past three days for
Bethel, Bethel Airport
| Date | Time (akdt) | Wind (mph) | Vis. (mi.) | Weather | Sky Cond. | Temperature (ºF) | Relative Humidity | Wind Chill (°F) | Heat Index (°F) | Pressure | Precipitation (in) | ||||||
|---|---|---|---|---|---|---|---|---|---|---|---|---|---|---|---|---|---|
| Air | Dwpt | 6 hour | altimeter (in) | sea level (mb) | 1 hr | 3 hr | 6 hr | ||||||||||
| Max. | Min. | ||||||||||||||||
| 08 | 08:53 | N 17 G 24 | 10.00 | Fair | CLR | 28.9 | 21 | 72% | 18 | 29.9 | 1012.8 | ||||||
| 08 | 07:53 | N 14 | 10.00 | Fair | CLR | 27 | 21 | 78% | 16 | 29.91 | 1012.9 | ||||||
| 08 | 06:53 | N 12 | 10.00 | Fair | CLR | 25 | 21 | 85% | 15 | 29.92 | 1013.2 | ||||||
| 08 | 05:53 | N 9 | 10.00 | Fair | CLR | 24.1 | 21 | 88% | 15 | 29.93 | 1013.6 | ||||||
| 08 | 04:53 | N 13 | 10.00 | Fair | CLR | 25 | 21 | 85% | 14 | 29.93 | 1013.6 | ||||||
| 08 | 03:53 | N 13 | 10.00 | Fair | CLR | 26.1 | 21.9 | 37.9 | 26.1 | 84% | 16 | 29.94 | 1013.9 | ||||
| 08 | 02:53 | N 13 | 10.00 | Fair | CLR | 27 | 21.9 | 81% | 17 | 29.95 | 1014.3 | ||||||
| 08 | 01:53 | N 12 | 10.00 | Fair | CLR | 28 | 23 | 81% | 19 | 29.95 | 1014.4 | ||||||
| 08 | 00:53 | N 12 | 10.00 | Fair | CLR | 28.9 | 24.1 | 82% | 20 | 29.96 | 1014.6 | ||||||
| 07 | 23:53 | N 14 | 10.00 | Fair | CLR | 30.9 | 24.1 | 76% | 21 | 29.96 | 1014.6 | ||||||
| 07 | 22:53 | N 12 | 10.00 | Fair | CLR | 34 | 24.1 | 67% | 26 | 29.96 | 1014.8 | ||||||
| 07 | 21:53 | N 14 | 10.00 | Fair | CLR | 37.9 | 24.1 | 42.1 | 37.9 | 57% | 30 | 29.96 | 1014.8 | ||||
| 07 | 20:53 | N 14 | 10.00 | Fair | CLR | 39.9 | 21 | 47% | 33 | 29.96 | 1014.9 | ||||||
| 07 | 19:53 | N 17 | 10.00 | Fair | CLR | 41 | 19.9 | 43% | 33 | 29.97 | 1015.2 | ||||||
| 07 | 18:53 | N 16 G 24 | 10.00 | Fair | CLR | 41 | 21.9 | 47% | 33 | 29.99 | 1015.6 | ||||||
| 07 | 17:53 | N 17 | 10.00 | Fair | CLR | 41 | 21 | 45% | 33 | 30 | 1015.9 | ||||||
| 07 | 16:53 | N 17 G 22 | 10.00 | Fair | CLR | 41 | 21.9 | 47% | 33 | 30.01 | 1016.3 | ||||||
| 07 | 15:53 | N 20 G 25 | 10.00 | Fair | CLR | 39.9 | 24.1 | 41 | 30 | 53% | 31 | 30.02 | 1016.7 | ||||
| 07 | 14:53 | N 8 G 17 | 10.00 | Fair | CLR | 39.9 | 23 | 51% | 35 | 30.03 | 1017.1 | ||||||
| 07 | 13:53 | N 8 G 17 | 10.00 | Fair | CLR | 37.9 | 23 | 55% | 33 | 30.04 | 1017.5 | ||||||
| 07 | 12:53 | NE 10 | 10.00 | A Few Clouds | FEW027 | 36 | 21.9 | 57% | 29 | 30.05 | 1017.7 | ||||||
| 07 | 11:53 | N 12 | 10.00 | Fair | CLR | 33.1 | 23 | 66% | 25 | 30.06 | 1018.1 | ||||||
| 07 | 10:53 | N 9 | 10.00 | Fair | CLR | 33.1 | 21.9 | 64% | 26 | 30.07 | 1018.3 | ||||||
| 07 | 09:53 | N 9 | 10.00 | Fair | CLR | 30 | 23 | 30 | 26.1 | 75% | 22 | 30.07 | 1018.6 | ||||
| 07 | 08:53 | N 9 | 10.00 | Fair | CLR | 27 | 21 | 78% | 19 | 30.08 | 1018.8 | ||||||
| 07 | 07:53 | N 9 | 10.00 | Overcast | OVC028 | 26.1 | 21 | 81% | 18 | 30.08 | 1019.0 | ||||||
| 07 | 06:53 | N 8 | 10.00 | Overcast | OVC026 | 27 | 21 | 78% | 19 | 30.09 | 1019.2 | ||||||
| 07 | 05:53 | N 8 | 10.00 | Overcast | OVC024 | 28.9 | 23 | 78% | 22 | 30.1 | 1019.4 | ||||||
| 07 | 04:53 | N 6 | 10.00 | Overcast | OVC026 | 28 | 21.9 | 78% | 22 | 30.1 | 1019.6 | ||||||
| 07 | 03:53 | N 8 | 10.00 | Overcast | OVC026 | 28.9 | 23 | 30.9 | 28.9 | 78% | 22 | 30.1 | 1019.6 | ||||
| 07 | 02:53 | NW 8 | 10.00 | Overcast | OVC027 | 28.9 | 24.1 | 82% | 22 | 30.1 | 1019.6 | ||||||
| 07 | 01:53 | N 6 | 10.00 | Overcast | OVC025 | 28.9 | 24.1 | 82% | 23 | 30.1 | 1019.7 | ||||||
| 07 | 00:53 | NW 9 | 10.00 | Overcast | OVC025 | 30 | 23 | 75% | 22 | 30.1 | 1019.6 | ||||||
| 06 | 23:53 | W 3 | 10.00 | Overcast | OVC024 | 30.9 | 21.9 | 69% | 30.1 | 1019.5 | |||||||
| 06 | 22:53 | NW 7 | 10.00 | Overcast | OVC021 | 30.9 | 23 | 72% | 25 | 30.1 | 1019.5 | ||||||
| 06 | 20:53 | NW 7 | 10.00 | Overcast | OVC020 | 30.9 | 23 | 72% | 25 | 30.1 | 1019.5 | ||||||
| 06 | 19:53 | NW 8 G 18 | 10.00 | Overcast | OVC020 | 30.9 | 23 | 72% | 24 | 30.1 | 1019.5 | ||||||
| 06 | 18:53 | NW 9 | 10.00 | Overcast | BKN019 OVC080 | 30.9 | 21.9 | 69% | 24 | 30.1 | 1019.5 | ||||||
| 06 | 17:53 | W 7 | 10.00 | Overcast | OVC020 | 30.9 | 21.9 | 69% | 25 | 30.09 | 1019.3 | ||||||
| 06 | 16:53 | W 8 | 10.00 | Mostly Cloudy | BKN020 BKN080 | 32 | 21.9 | 66% | 25 | 30.1 | 1019.7 | ||||||
| 06 | 15:53 | NW 6 | 10.00 | Partly Cloudy | SCT021 | 30.9 | 21 | 32 | 25 | 67% | 26 | 30.11 | 1019.8 | ||||
| 06 | 14:53 | NW 7 | 10.00 | Overcast | OVC018 | 28.9 | 19.9 | 69% | 23 | 30.11 | 1019.8 | ||||||
| 06 | 13:53 | Vrbl 3 | 10.00 | Overcast | OVC016 | 28 | 19.9 | 72% | 30.12 | 1020.1 | |||||||
| 06 | 11:53 | Calm | 10.00 | Overcast | OVC013 | 26.1 | 21 | 81% | 30.11 | 1019.9 | |||||||
| 06 | 10:53 | NW 7 | 10.00 | Overcast | OVC012 | 25 | 19.9 | 81% | 18 | 30.11 | 1019.9 | ||||||
| 06 | 09:53 | NW 8 | 10.00 | Overcast | OVC011 | 25 | 21 | 26.1 | 25 | 85% | 17 | 30.11 | 1019.8 | ||||
| 06 | 08:53 | W 5 | 10.00 | Overcast | OVC010 | 25 | 21 | 85% | 20 | 30.1 | 1019.5 | ||||||
| 06 | 07:53 | Calm | 10.00 | Overcast | OVC010 | 25 | 21 | 85% | 30.09 | 1019.2 | |||||||
| 06 | 06:53 | W 7 | 10.00 | Overcast | OVC010 | 25 | 21.9 | 88% | 18 | 30.08 | 1018.9 | ||||||
| 06 | 05:53 | NW 5 | 10.00 | Overcast | OVC011 | 26.1 | 21.9 | 84% | 21 | 30.08 | 1018.7 | ||||||
| 06 | 04:53 | NW 8 | 10.00 | Overcast | OVC010 | 26.1 | 21.9 | 84% | 18 | 30.07 | 1018.4 | ||||||
| 06 | 03:53 | NW 7 | 10.00 | Overcast | OVC011 | 26.1 | 21.9 | 32 | 26.1 | 84% | 19 | 30.06 | 1018.1 | ||||
| 06 | 02:53 | NW 10 | 10.00 | Overcast | OVC012 | 26.1 | 21.9 | 84% | 17 | 30.06 | 1018.0 | ||||||
| 06 | 01:53 | NW 9 | 10.00 | Overcast | OVC012 | 27 | 21.9 | 81% | 19 | 30.05 | 1017.8 | ||||||
| 06 | 00:53 | NW 14 | 10.00 | Mostly Cloudy | BKN012 | 26.1 | 21.9 | 84% | 15 | 30.04 | 1017.5 | ||||||
| 05 | 23:53 | NW 10 | 10.00 | Fair | CLR | 27 | 23 | 85% | 18 | 30.03 | 1017.2 | ||||||
| 05 | 22:53 | NW 16 | 10.00 | Fair | CLR | 28.9 | 24.1 | 82% | 18 | 30 | 1016.2 | ||||||
| 05 | 21:53 | NW 17 | 10.00 | Fair | CLR | 32 | 25 | 37.9 | 32 | 75% | 22 | 30 | 1015.9 | ||||
| 05 | 20:53 | NW 16 | 10.00 | Fair | CLR | 34 | 25 | 70% | 24 | 29.98 | 1015.4 | ||||||
| 05 | 19:53 | NW 18 G 25 | 10.00 | Fair | CLR | 36 | 25 | 64% | 26 | 29.97 | 1015.1 | ||||||
| 05 | 18:53 | NW 17 G 25 | 10.00 | A Few Clouds | FEW024 | 36 | 25 | 64% | 27 | 29.96 | 1014.9 | ||||||
| 05 | 17:53 | NW 20 G 26 | 10.00 | Fair | CLR | 37 | 25 | 62% | 27 | 29.95 | 1014.3 | ||||||
| 05 | 16:53 | NW 17 G 26 | 10.00 | Fair | CLR | 37 | 24.1 | 59% | 28 | 29.94 | 1014.1 | ||||||
| 05 | 15:53 | NW 22 G 32 | 10.00 | Fair and Breezy | CLR | 37 | 25 | 37 | 30 | 62% | 27 | 29.93 | 1013.8 | ||||
| 05 | 14:53 | NW 20 G 28 | 10.00 | Fair | CLR | 36 | 25 | 64% | 26 | 29.94 | 1013.9 | ||||||
| 05 | 13:53 | NW 22 G 31 | 10.00 | Fair and Breezy | CLR | 36 | 25 | 64% | 25 | 29.92 | 1013.3 | ||||||
| 05 | 12:53 | NW 20 G 29 | 10.00 | Fair | CLR | 34 | 24.1 | 67% | 23 | 29.92 | 1013.3 | ||||||
| 05 | 11:53 | NW 22 G 33 | 10.00 | Fair and Breezy | CLR | 32 | 25 | 75% | 20 | 29.9 | 1012.7 | ||||||
| 05 | 10:53 | NW 22 G 31 | 10.00 | Fair and Breezy | CLR | 32 | 25 | 75% | 20 | 29.88 | 1012.2 | ||||||
| 05 | 09:53 | NW 20 G 29 | 10.00 | Fair | CLR | 30 | 24.1 | 30 | 27 | 79% | 18 | 29.87 | 1011.7 | ||||
| Date | Time (akdt) | Wind (mph) | Vis. (mi.) | Weather | Sky Cond. | Air | Dwpt | Max. | Min. | Relative Humidity | Wind Chill (°F) | Heat Index (°F) | altimeter (in) | sea level (mb) | 1 hr | 3 hr | 6 hr |
| 6 hour | |||||||||||||||||
| Temperature (ºF) | Pressure | Precipitation (in) | |||||||||||||||